TimeCST,TemperatureF,Dew PointF,Humidity,Sea Level PressureIn,VisibilityMPH,Wind Direction,Wind SpeedMPH,Gust SpeedMPH,PrecipitationIn,Events,Conditions,WindDirDegrees,DateUTC
12:15 AM,-13.9,-22.0,67,30.27,10.0,NW,6.9,-,N/A,,Clear,310,2013-01-22 06:15:00
12:35 AM,-14.8,-23.1,66,30.28,10.0,NW,6.9,-,N/A,,Clear,310,2013-01-22 06:35:00
12:55 AM,-14.1,-22.0,68,30.28,10.0,WNW,6.9,-,N/A,,Clear,300,2013-01-22 06:55:00
1:15 AM,-14.3,-22.4,67,30.29,10.0,WNW,8.1,-,N/A,,Clear,300,2013-01-22 07:15:00
1:55 AM,-14.8,-22.7,68,30.30,10.0,NW,9.2,-,N/A,,Clear,310,2013-01-22 07:55:00
2:15 AM,-15.7,-23.3,69,30.30,10.0,NW,8.1,-,N/A,,Clear,310,2013-01-22 08:15:00
2:35 AM,-15.9,-23.8,67,30.31,10.0,WNW,5.8,-,N/A,,Clear,290,2013-01-22 08:35:00
2:55 AM,-16.1,-24.0,67,30.31,10.0,West,4.6,-,N/A,,Clear,280,2013-01-22 08:55:00
3:15 AM,-16.4,-24.3,67,30.31,10.0,West,5.8,-,N/A,,Clear,270,2013-01-22 09:15:00
3:35 AM,-16.6,-24.0,69,30.32,10.0,West,4.6,-,N/A,,Clear,260,2013-01-22 09:35:00
3:55 AM,-16.8,-24.5,68,30.32,10.0,West,4.6,-,N/A,,Clear,260,2013-01-22 09:55:00
4:15 AM,-17.0,-24.3,69,30.32,10.0,West,5.8,-,N/A,,Clear,270,2013-01-22 10:15:00
4:35 AM,-17.0,-24.5,69,30.32,10.0,West,8.1,-,N/A,,Clear,270,2013-01-22 10:35:00
4:55 AM,-16.6,-24.0,69,30.32,10.0,West,8.1,-,N/A,,Clear,280,2013-01-22 10:55:00
5:15 AM,-17.1,-24.5,69,30.33,10.0,West,6.9,-,N/A,,Clear,270,2013-01-22 11:15:00
5:35 AM,-17.1,-24.3,70,30.34,10.0,West,5.8,-,N/A,,Clear,270,2013-01-22 11:35:00
5:55 AM,-17.1,-24.5,69,30.34,10.0,West,5.8,-,N/A,,Clear,270,2013-01-22 11:55:00
6:15 AM,-17.5,-24.7,70,30.34,10.0,West,5.8,-,N/A,,Clear,260,2013-01-22 12:15:00
6:35 AM,-18.2,-25.1,71,30.34,10.0,SW,3.5,-,N/A,,Clear,220,2013-01-22 12:35:00
6:55 AM,-18.6,-24.9,73,30.34,10.0,WSW,5.8,-,N/A,,Clear,240,2013-01-22 12:55:00
7:15 AM,-19.5,-25.8,73,30.34,10.0,WSW,3.5,-,N/A,,Clear,240,2013-01-22 13:15:00
7:35 AM,-19.3,-25.6,73,30.34,10.0,SW,5.8,-,N/A,,Clear,230,2013-01-22 13:35:00
7:55 AM,-19.5,-25.8,73,30.33,10.0,SW,5.8,-,N/A,,Clear,230,2013-01-22 13:55:00
8:15 AM,-19.3,-25.6,73,30.33,10.0,SW,5.8,-,N/A,,Clear,220,2013-01-22 14:15:00
8:35 AM,-17.9,-24.7,71,30.33,10.0,SW,5.8,-,N/A,,Clear,230,2013-01-22 14:35:00
8:55 AM,-17.0,-24.0,70,30.33,10.0,SW,4.6,-,N/A,,Clear,220,2013-01-22 14:55:00
9:15 AM,-15.3,-22.9,69,30.34,10.0,SW,5.8,-,N/A,,Clear,220,2013-01-22 15:15:00
9:35 AM,-14.1,-22.2,67,30.36,10.0,WSW,5.8,-,N/A,,Clear,240,2013-01-22 15:35:00
9:55 AM,-13.9,-22.2,66,30.36,10.0,SW,6.9,-,N/A,,Clear,220,2013-01-22 15:55:00
10:15 AM,-12.5,-21.1,65,30.36,10.0,SW,6.9,-,N/A,,Clear,230,2013-01-22 16:15:00
10:35 AM,-12.1,-20.7,65,30.36,10.0,SW,8.1,-,N/A,,Clear,230,2013-01-22 16:35:00
10:55 AM,-10.1,-19.8,62,30.36,10.0,WSW,5.8,-,N/A,,Clear,240,2013-01-22 16:55:00
11:15 AM,-8.7,-19.1,60,30.34,10.0,SW,6.9,-,N/A,,Clear,230,2013-01-22 17:15:00
11:35 AM,-7.6,-18.6,59,30.33,10.0,SW,5.8,-,N/A,,Clear,220,2013-01-22 17:35:00
11:55 AM,-6.0,-17.5,58,30.32,10.0,SW,8.1,-,N/A,,Clear,230,2013-01-22 17:55:00
12:15 PM,-5.1,-16.8,57,30.32,10.0,West,8.1,-,N/A,,Clear,280,2013-01-22 18:15:00
12:35 PM,-4.0,-16.4,55,30.31,10.0,West,9.2,-,N/A,,Clear,260,2013-01-22 18:35:00
12:55 PM,-3.1,-15.9,54,30.29,10.0,WSW,6.9,-,N/A,,Clear,240,2013-01-22 18:55:00
1:15 PM,-1.3,-14.8,53,30.29,10.0,West,8.1,-,N/A,,Clear,260,2013-01-22 19:15:00
1:35 PM,-1.8,-15.2,53,30.29,10.0,WSW,12.7,-,N/A,,Clear,240,2013-01-22 19:35:00
1:55 PM,-1.5,-15.0,53,30.29,10.0,WSW,11.5,16.1,N/A,,Clear,240,2013-01-22 19:55:00
2:15 PM,-0.2,-14.4,51,30.28,10.0,West,9.2,-,N/A,,Clear,260,2013-01-22 20:15:00
2:35 PM,-0.4,-14.8,51,30.28,10.0,West,10.4,-,N/A,,Clear,260,2013-01-22 20:35:00
2:55 PM,0.5,-14.3,50,30.28,10.0,WSW,10.4,-,N/A,,Clear,250,2013-01-22 20:55:00
3:15 PM,0.5,-14.3,50,30.28,10.0,West,13.8,-,N/A,,Clear,260,2013-01-22 21:15:00
3:35 PM,0.9,-14.3,49,30.28,10.0,WSW,11.5,18.4,N/A,,Clear,250,2013-01-22 21:35:00
3:55 PM,1.2,-13.9,49,30.27,10.0,WSW,8.1,-,N/A,,Clear,240,2013-01-22 21:55:00
4:15 PM,0.7,-14.1,50,30.27,10.0,West,9.2,16.1,N/A,,Clear,260,2013-01-22 22:15:00
4:35 PM,-0.6,-14.1,53,30.26,10.0,WSW,8.1,-,N/A,,Clear,250,2013-01-22 22:35:00
4:55 PM,-0.9,-14.3,53,30.27,10.0,WSW,6.9,-,N/A,,Clear,240,2013-01-22 22:55:00
5:15 PM,-2.2,-14.8,55,30.26,10.0,WSW,4.6,-,N/A,,Clear,250,2013-01-22 23:15:00
5:35 PM,-2.2,-14.6,56,30.27,10.0,WSW,4.6,-,N/A,,Clear,250,2013-01-22 23:35:00
5:55 PM,-1.8,-14.1,56,30.26,10.0,WSW,8.1,-,N/A,,Clear,240,2013-01-22 23:55:00
6:15 PM,-1.7,-13.9,56,30.26,10.0,SW,6.9,-,N/A,,Clear,230,2013-01-23 00:15:00
6:35 PM,-1.7,-13.5,57,30.25,10.0,SW,6.9,-,N/A,,Clear,230,2013-01-23 00:35:00
6:55 PM,-2.2,-13.5,59,30.25,10.0,SW,8.1,-,N/A,,Clear,230,2013-01-23 00:55:00
7:15 PM,-2.7,-13.5,60,30.25,10.0,SW,5.8,-,N/A,,Clear,230,2013-01-23 01:15:00
7:35 PM,-3.1,-13.4,62,30.25,10.0,SW,6.9,-,N/A,,Clear,230,2013-01-23 01:35:00
7:55 PM,-3.5,-13.4,63,30.24,10.0,SW,5.8,-,N/A,,Clear,220,2013-01-23 01:55:00
8:15 PM,-3.6,-13.2,64,30.24,10.0,SW,8.1,-,N/A,,Clear,230,2013-01-23 02:15:00
8:35 PM,-3.6,-13.4,63,30.23,10.0,SW,9.2,-,N/A,,Clear,230,2013-01-23 02:35:00
8:55 PM,-4.0,-13.7,63,30.23,10.0,SW,6.9,-,N/A,,Scattered Clouds,230,2013-01-23 02:55:00
9:15 PM,-4.2,-13.5,64,30.23,10.0,SW,5.8,-,N/A,,Clear,230,2013-01-23 03:15:00
9:35 PM,-4.9,-13.5,66,30.23,10.0,WSW,4.6,-,N/A,,Clear,240,2013-01-23 03:35:00
9:55 PM,-5.4,-14.1,66,30.23,10.0,WSW,5.8,-,N/A,,Clear,240,2013-01-23 03:55:00
10:15 PM,-5.8,-14.1,67,30.22,10.0,WSW,4.6,-,N/A,,Clear,240,2013-01-23 04:15:00
10:35 PM,-6.0,-14.1,68,30.22,10.0,WSW,6.9,-,N/A,,Clear,240,2013-01-23 04:35:00
10:55 PM,-5.6,-13.7,68,30.22,10.0,SW,6.9,-,N/A,,Scattered Clouds,230,2013-01-23 04:55:00
11:15 PM,-4.5,-12.6,68,30.21,10.0,SW,8.1,-,N/A,,Overcast,230,2013-01-23 05:15:00
11:35 PM,-4.2,-12.3,68,30.21,10.0,SW,9.2,-,N/A,,Overcast,230,2013-01-23 05:35:00
11:55 PM,-4.2,-12.3,68,30.20,10.0,SW,10.4,-,N/A,,Overcast,230,2013-01-23 05:55:00